WZZ5LT LFOB-LYPG

Flight info

Callsign WZZ5LT
Flight time N/A
Altitude 36000
Route LANVI DCT EPL/N0429F350 DCT BEGAR N491 DEGES/N0429F360 N871 GAMSA/N0428F350 N871 MADEB N606 OTRES T307 DIRAB DCT VESAL DCT PEVAL DCT NAKIT DCT KENEM DCT NIK
Aircraft A21N/M-SDE1E2E3FGIJ1J4RWXY/LB1

Departure

Time 2026-05-01 14:11
Airport Beauvais-Tillé airport (LFOB)

Arrival

Time N/A
Airport Podgorica Airport / Podgorica Golubovci Airbase (LYPG)
Time Latitude Longitude Altitude Speed Heading
2026-05-01 13:42 49.45826 2.11115 361 ft 0 kts 33°
2026-05-01 14:03 49.45826 2.11114 353 ft 0 kts 33°
2026-05-01 14:05 49.45821 2.11110 354 ft 4 kts 33°
2026-05-01 14:05 49.45799 2.11088 360 ft 4 kts 19°
2026-05-01 14:05 49.45775 2.11087 355 ft 4 kts 334°
2026-05-01 14:05 49.45758 2.11108 363 ft 1 kts 303°
2026-05-01 14:06 49.45756 2.11114 360 ft 1 kts 303°
2026-05-01 14:08 49.45766 2.11091 360 ft 5 kts 303°
2026-05-01 14:09 49.45791 2.11031 358 ft 8 kts 300°
2026-05-01 14:09 49.45775 2.10985 358 ft 6 kts 220°
2026-05-01 14:09 49.45732 2.10943 356 ft 8 kts 209°
2026-05-01 14:09 49.45674 2.10896 358 ft 10 kts 208°
2026-05-01 14:10 49.45612 2.10897 361 ft 10 kts 138°
2026-05-01 14:10 49.45535 2.11060 353 ft 48 kts 122°
2026-05-01 14:10 49.45184 2.11876 347 ft 134 kts 123°
2026-05-01 14:10 49.44584 2.13287 646 ft 167 kts 125°
2026-05-01 14:11 49.43940 2.14824 1383 ft 177 kts 121°
2026-05-01 14:11 49.43821 2.19079 2583 ft 228 kts 86°
2026-05-01 14:11 49.43975 2.21666 3141 ft 255 kts 86°
2026-05-01 14:12 49.44134 2.24440 3973 ft 265 kts 86°
2026-05-01 14:12 49.44295 2.27297 4977 ft 269 kts 86°
2026-05-01 14:12 49.44454 2.30151 5963 ft 273 kts 87°
2026-05-01 14:12 49.44616 2.33078 6971 ft 276 kts 87°
2026-05-01 14:13 49.44596 2.36016 7898 ft 276 kts 103°
2026-05-01 14:13 49.44193 2.37902 8524 ft 275 kts 117°
2026-05-01 14:13 49.42952 2.41325 9775 ft 278 kts 122°
2026-05-01 14:13 49.41972 2.43901 10556 ft 287 kts 122°
2026-05-01 14:14 49.40932 2.46648 10986 ft 307 kts 122°
2026-05-01 14:14 49.39841 2.49545 11621 ft 317 kts 122°
2026-05-01 14:14 49.38735 2.52508 12434 ft 321 kts 122°
2026-05-01 14:14 49.37622 2.55503 13318 ft 324 kts 122°
2026-05-01 14:15 49.36500 2.58523 14187 ft 326 kts 122°
2026-05-01 14:15 49.35367 2.61568 14960 ft 330 kts 122°
2026-05-01 14:15 49.34225 2.64639 15718 ft 333 kts 122°
2026-05-01 14:15 49.33088 2.67684 16461 ft 336 kts 122°
2026-05-01 14:16 49.31910 2.70814 17214 ft 340 kts 122°
2026-05-01 14:16 49.30719 2.73984 17957 ft 344 kts 122°
2026-05-01 14:16 49.29523 2.77179 18675 ft 347 kts 122°
2026-05-01 14:16 49.28313 2.80407 19310 ft 351 kts 122°
2026-05-01 14:17 49.27090 2.83667 19955 ft 354 kts 122°
2026-05-01 14:17 49.25876 2.86911 20584 ft 357 kts 122°
2026-05-01 14:17 49.24617 2.90259 21237 ft 359 kts 122°
2026-05-01 14:17 49.23378 2.93544 21857 ft 362 kts 122°
2026-05-01 14:18 49.22107 2.96903 22490 ft 365 kts 122°
2026-05-01 14:18 49.20833 3.00278 23109 ft 367 kts 122°
2026-05-01 14:18 49.19550 3.03679 23724 ft 370 kts 122°
2026-05-01 14:18 49.18650 3.05907 24063 ft 371 kts 127°
2026-05-01 14:19 49.16598 3.10109 24733 ft 373 kts 129°
2026-05-01 14:19 49.15001 3.13262 25223 ft 376 kts 129°
2026-05-01 14:19 49.13394 3.16430 25707 ft 378 kts 129°
2026-05-01 14:19 49.11773 3.19628 26178 ft 381 kts 129°
2026-05-01 14:20 49.10140 3.22846 26644 ft 383 kts 129°
2026-05-01 14:20 49.06855 3.29328 27565 ft 388 kts 129°
2026-05-01 14:20 49.05212 3.32562 28000 ft 390 kts 129°
2026-05-01 14:21 49.03539 3.35842 28439 ft 393 kts 129°
2026-05-01 14:21 49.01853 3.39156 28858 ft 395 kts 129°
2026-05-01 14:21 49.00163 3.42482 29260 ft 398 kts 129°
2026-05-01 14:22 48.96759 3.49147 30037 ft 403 kts 129°
2026-05-01 14:22 48.95156 3.52670 30387 ft 407 kts 121°
2026-05-01 14:22 48.93999 3.56634 30689 ft 412 kts 110°
2026-05-01 14:22 48.93420 3.60936 30991 ft 418 kts 99°
2026-05-01 14:23 48.93177 3.65367 31296 ft 422 kts 97°
2026-05-01 14:23 48.92979 3.69788 31580 ft 424 kts 97°
2026-05-01 14:23 48.92766 3.74287 31873 ft 426 kts 97°
2026-05-01 14:23 48.92536 3.78778 32246 ft 425 kts 98°
2026-05-01 14:24 48.92297 3.83261 32622 ft 424 kts 98°
2026-05-01 14:24 48.92058 3.87678 32963 ft 424 kts 98°
2026-05-01 14:24 48.91810 3.92158 33305 ft 424 kts 98°
2026-05-01 14:24 48.91562 3.96636 33614 ft 424 kts 98°
2026-05-01 14:25 48.91310 4.01103 33936 ft 424 kts 98°
2026-05-01 14:25 48.91060 4.05570 34256 ft 424 kts 98°
2026-05-01 14:25 48.90817 4.09926 34489 ft 424 kts 98°
2026-05-01 14:25 48.90560 4.14451 34730 ft 424 kts 98°
2026-05-01 14:26 48.90281 4.18915 34947 ft 424 kts 101°
2026-05-01 14:26 48.88489 4.27343 35330 ft 419 kts 120°
2026-05-01 14:26 48.87077 4.31215 35535 ft 419 kts 122°
2026-05-01 14:27 48.85612 4.35078 35741 ft 420 kts 122°
2026-05-01 14:27 48.84166 4.38937 35953 ft 420 kts 121°
2026-05-01 14:27 48.82749 4.42762 36145 ft 421 kts 121°
2026-05-01 14:28 48.79885 4.50547 36272 ft 422 kts 121°
2026-05-01 14:28 48.78450 4.54437 36256 ft 422 kts 121°
2026-05-01 14:28 48.75599 4.62163 36241 ft 422 kts 121°
2026-05-01 14:29 48.72720 4.69935 36242 ft 422 kts 121°
2026-05-01 14:30 48.66958 4.85427 36245 ft 423 kts 121°
2026-05-01 14:31 48.62607 4.97065 36248 ft 424 kts 121°
2026-05-01 14:31 48.59693 5.04826 36244 ft 424 kts 122°
2026-05-01 14:32 48.56780 5.12526 36246 ft 424 kts 122°
2026-05-01 14:32 48.53844 5.20284 36249 ft 425 kts 122°
2026-05-01 14:33 48.50924 5.27990 36247 ft 425 kts 122°
2026-05-01 14:33 48.47986 5.35757 36247 ft 425 kts 121°
2026-05-01 14:34 48.45069 5.43473 36251 ft 426 kts 122°
2026-05-01 14:34 48.42112 5.51210 36255 ft 426 kts 122°
2026-05-01 14:35 48.39144 5.58949 36258 ft 427 kts 122°
2026-05-01 14:35 48.36672 5.65388 36258 ft 427 kts 122°
2026-05-01 14:36 48.33698 5.73131 36258 ft 427 kts 122°
2026-05-01 14:36 48.31442 5.81390 36254 ft 432 kts 102°
2026-05-01 14:36 48.31219 5.85917 36266 ft 435 kts 91°
2026-05-01 14:37 48.31325 5.90404 36269 ft 435 kts 89°
2026-05-01 14:37 48.31592 5.99510 36263 ft 435 kts 89°
2026-05-01 14:38 48.31087 6.08504 36255 ft 431 kts 108°
2026-05-01 14:38 48.28971 6.16854 36264 ft 430 kts 113°
2026-05-01 14:39 48.26733 6.25218 36263 ft 431 kts 113°
2026-05-01 14:39 48.24521 6.33592 36265 ft 431 kts 112°
2026-05-01 14:40 48.22308 6.41971 36269 ft 432 kts 112°
2026-05-01 14:40 48.20109 6.50307 36269 ft 432 kts 112°
2026-05-01 14:41 48.17880 6.58695 36270 ft 432 kts 112°
2026-05-01 14:41 48.15653 6.67046 36280 ft 432 kts 112°
2026-05-01 14:42 48.13407 6.75424 36279 ft 432 kts 113°
2026-05-01 14:42 48.11178 6.83738 36281 ft 433 kts 112°
2026-05-01 14:43 48.08926 6.92104 36281 ft 433 kts 112°
2026-05-01 14:43 48.06669 7.00473 36273 ft 433 kts 112°
2026-05-01 14:44 48.04406 7.08792 36267 ft 434 kts 113°
2026-05-01 14:44 48.00979 7.21350 36266 ft 435 kts 112°
2026-05-01 14:45 47.97553 7.33880 36265 ft 436 kts 112°
2026-05-01 14:46 47.95258 7.42212 36266 ft 436 kts 112°
2026-05-01 14:46 47.91781 7.54793 36270 ft 437 kts 112°
2026-05-01 14:47 47.89528 7.63218 36274 ft 437 kts 111°
2026-05-01 14:48 47.86248 7.75886 36281 ft 438 kts 111°
2026-05-01 14:48 47.82926 7.88580 36290 ft 438 kts 111°
2026-05-01 14:49 47.78486 8.05416 36299 ft 438 kts 111°
2026-05-01 14:50 47.74231 8.22391 36299 ft 439 kts 109°
2026-05-01 14:51 47.71063 8.35179 36312 ft 439 kts 109°
2026-05-01 14:52 47.67879 8.47894 36315 ft 440 kts 110°
2026-05-01 14:53 47.64628 8.60638 36319 ft 439 kts 110°
2026-05-01 14:53 47.62470 8.69066 36320 ft 439 kts 110°
2026-05-01 14:54 47.60289 8.77545 36317 ft 439 kts 110°
2026-05-01 14:54 47.57489 8.85567 36302 ft 441 kts 123°
2026-05-01 14:55 47.53979 8.93042 36305 ft 441 kts 124°
2026-05-01 14:55 47.50476 9.00503 36304 ft 441 kts 123°
2026-05-01 14:56 47.46988 9.07936 36308 ft 441 kts 123°
2026-05-01 14:56 47.43487 9.15399 36303 ft 441 kts 122°
2026-05-01 14:56 47.42052 9.19337 36296 ft 439 kts 110°
2026-05-01 14:57 47.41235 9.23659 36297 ft 436 kts 96°
2026-05-01 14:57 47.41059 9.37042 36299 ft 434 kts 88°
2026-05-01 14:58 47.41017 9.45917 36295 ft 434 kts 89°
2026-05-01 14:58 47.40931 9.54840 36290 ft 434 kts 89°
2026-05-01 14:59 47.40822 9.63746 36297 ft 434 kts 91°
2026-05-01 14:59 47.39894 9.72576 36299 ft 435 kts 99°
2026-05-01 15:00 47.38149 9.85690 36304 ft 435 kts 99°
2026-05-01 15:01 47.36991 9.94453 36309 ft 435 kts 99°
2026-05-01 15:01 47.35839 10.03228 36315 ft 435 kts 99°
2026-05-01 15:02 47.34680 10.11944 36319 ft 434 kts 98°
2026-05-01 15:02 47.33900 10.17782 36326 ft 433 kts 99°
2026-05-01 15:03 47.32858 10.25591 36318 ft 434 kts 98°
2026-05-01 15:03 47.31687 10.34262 36328 ft 434 kts 99°
2026-05-01 15:04 47.30479 10.42980 36318 ft 433 kts 99°
2026-05-01 15:04 47.29058 10.51605 36316 ft 436 kts 109°
2026-05-01 15:04 47.27640 10.55578 36313 ft 440 kts 123°
2026-05-01 15:05 47.25604 10.58979 36311 ft 444 kts 136°
2026-05-01 15:05 47.23097 10.61580 36313 ft 447 kts 149°
2026-05-01 15:05 47.20345 10.63732 36315 ft 447 kts 151°
2026-05-01 15:06 47.14683 10.67594 36306 ft 449 kts 158°
2026-05-01 15:06 47.08823 10.70719 36303 ft 449 kts 158°
2026-05-01 15:07 47.03059 10.74248 36297 ft 448 kts 147°
2026-05-01 15:07 47.00544 10.76930 36298 ft 444 kts 135°
2026-05-01 15:07 46.98389 10.80086 36307 ft 443 kts 131°
2026-05-01 15:08 46.94166 10.86680 36306 ft 443 kts 130°
2026-05-01 15:08 46.89912 10.93227 36308 ft 443 kts 131°
2026-05-01 15:09 46.85647 10.99722 36311 ft 443 kts 131°
2026-05-01 15:09 46.81385 11.06182 36308 ft 443 kts 131°
2026-05-01 15:10 46.77168 11.12729 36315 ft 442 kts 130°
2026-05-01 15:10 46.70883 11.22548 36281 ft 443 kts 130°
2026-05-01 15:11 46.64555 11.32362 36257 ft 443 kts 130°
2026-05-01 15:12 46.60326 11.38897 36244 ft 443 kts 130°
2026-05-01 15:12 46.54004 11.48635 36237 ft 443 kts 130°
2026-05-01 15:14 46.43427 11.64855 36244 ft 443 kts 130°
2026-05-01 15:14 46.37005 11.74543 36284 ft 443 kts 131°
2026-05-01 15:15 46.28321 11.87183 36317 ft 444 kts 131°
2026-05-01 15:16 46.19599 11.99808 36331 ft 444 kts 131°
2026-05-01 15:18 46.08625 12.15595 36338 ft 446 kts 131°
2026-05-01 15:19 45.99867 12.28183 36339 ft 446 kts 131°
2026-05-01 15:19 45.93268 12.37615 36343 ft 446 kts 131°
2026-05-01 15:20 45.87389 12.45985 36346 ft 446 kts 131°
2026-05-01 15:21 45.82254 12.53273 36347 ft 446 kts 131°
2026-05-01 15:21 45.78576 12.58480 36341 ft 446 kts 131°
2026-05-01 15:22 45.71922 12.67855 36343 ft 446 kts 131°
2026-05-01 15:22 45.67514 12.74057 36343 ft 446 kts 130°
2026-05-01 15:23 45.63087 12.80279 36339 ft 446 kts 130°
2026-05-01 15:23 45.58684 12.86457 36345 ft 446 kts 130°
2026-05-01 15:24 45.54244 12.92667 36340 ft 446 kts 130°
2026-05-01 15:24 45.49801 12.98863 36342 ft 445 kts 130°
2026-05-01 15:25 45.45366 13.05025 36342 ft 445 kts 130°
2026-05-01 15:25 45.40953 13.11146 36345 ft 445 kts 130°
2026-05-01 15:26 45.36509 13.17305 36339 ft 445 kts 130°
2026-05-01 15:26 45.32099 13.23412 36336 ft 444 kts 130°
2026-05-01 15:27 45.27934 13.29859 36336 ft 441 kts 125°
2026-05-01 15:28 45.21904 13.39730 36336 ft 440 kts 125°
2026-05-01 15:28 45.18088 13.46438 36333 ft 433 kts 116°
2026-05-01 15:29 45.13508 13.57379 36339 ft 431 kts 114°
2026-05-01 15:30 45.07389 13.71954 36334 ft 431 kts 114°
2026-05-01 15:31 44.98166 13.93739 36324 ft 431 kts 114°
2026-05-01 15:32 44.91971 14.08274 36320 ft 431 kts 114°
2026-05-01 15:34 44.82667 14.29990 36327 ft 431 kts 114°